"2010-07-27 00:00:00",17581,4.314,136.8,4.351,0.32,24.85,111.9232,29.84,30.71,12.87,0,111.6,13.02,30.70,98.8
"2010-07-27 00:00:30",17582,4.292,130.3,1.571,0.251,24.79,111.9268,29.85,30.71,12.92,0,111.6,13.02,30.71,92.3
"2010-07-27 00:01:00",17583,3.65,128.2,9.27,0.229,24.8,111.9257,29.85,30.72,12.91,0,111.6,13.02,30.70,90.2
"2010-07-27 00:01:30",17584,3.455,123.9,5.394,0.268,24.83,111.9305,29.86,30.71,12.95,0,111.6,13.02,30.71,85.9
"2010-07-27 00:02:00",17585,3.909,117.8,4.632,0.342,24.85,111.9317,29.86,30.72,12.93,0,111.6,13.02,30.72,79.8
"2010-07-27 00:02:30",17586,3.746,136.1,6.3,0.291,24.82,111.9339,29.87,30.73,12.83,0,111.6,13.02,30.72,98.1
"2010-07-27 00:03:00",17587,3.367,124.5,7.247,0.981,24.89,111.9444,29.89,30.74,12.82,0,111.6,13.01,30.75,86.5
"2010-07-27 00:03:30",17588,2.413,124.2,6.703,0.342,24.86,111.9473,29.9,30.73,12.91,0,111.6,13.01,30.76,86.2
"2010-07-27 00:04:00",17589,2.15,106.5,6.975,0.281,24.85,111.9489,29.91,30.73,12.92,0,111.6,13.02,30.76,68.5
"2010-07-27 00:04:30",17590,1.19,106.6,11.5,0.365,24.82,111.9432,29.89,30.74,12.91,0,111.6,13.02,30.75,68.6
"2010-07-27 00:05:00",17591,1.193,113.1,11.29,0.175,24.8,111.9423,29.89,30.73,12.91,0,111.6,13.02,30.75,75.1
"2010-07-27 00:05:30",17592,1.266,124.3,10.24,0.397,24.74,111.9387,29.88,30.73,12.88,0,111.6,13.02,30.74,86.3
"2010-07-27 00:06:00",17593,1.743,133.2,3.853,0.314,24.73,111.9471,29.9,30.74,12.82,0,111.6,13.02,30.76,95.2
"2010-07-27 00:06:30",17594,2.219,138.8,3.838,0.186,24.68,111.9482,29.9,30.73,12.79,0,111.6,13.02,30.76,100.8
"2010-07-27 00:07:00",17595,2.258,157.5,4.694,0.172,24.69,111.935,29.87,30.74,12.75,0,111.6,13.02,30.73,119.5
"2010-07-27 00:07:30",17596,2.916,151.6,8.73,0.382,24.71,111.923,29.84,30.73,12.75,0,111.6,13.02,30.70,113.6
"2010-07-27 00:08:00",17597,3.64,149,8.18,0.189,24.79,111.9174,29.82,30.71,12.94,0,111.6,13.02,30.68,111.0
"2010-07-27 00:08:30",17598,3.227,162.6,3.73,0.213,24.81,111.9152,29.82,30.7,12.83,0,111.6,13.02,30.68,124.6
"2010-07-27 00:09:00",17599,3.465,162.4,3.621,0.603,24.79,111.9168,29.82,30.7,12.71,0,111.6,13.02,30.68,124.4
"2010-07-27 00:09:30",17600,4.106,156.2,2.628,0.191,24.83,111.9141,29.82,30.7,12.63,0,111.6,13.02,30.67,118.2
"2010-07-27 00:10:00",17601,3.459,164.1,4.91,0.395,24.86,111.9173,29.82,30.71,12.67,0,111.6,13.02,30.68,126.1
"2010-07-27 00:10:30",17602,3.832,175,9.96,0.672,24.9,111.922,29.84,30.7,12.69,0,111.6,13.02,30.69,137.0
"2010-07-27 00:11:00",17603,3.477,166.4,3.475,0.546,24.91,111.9247,29.84,30.71,12.72,0,111.6,13.02,30.70,128.4
"2010-07-27 00:11:30",17604,3.125,159.9,7.602,0.487,24.88,111.9432,29.89,30.72,12.77,0,111.6,13.02,30.75,121.9
"2010-07-27 00:12:00",17605,3.093,170.5,9.34,0.372,24.84,111.9473,29.9,30.72,12.61,0,111.6,13.02,30.76,132.5
"2010-07-27 00:12:30",17606,3.679,161.8,4.25,0.24,24.81,111.9466,29.9,30.73,12.61,0,111.6,13.01,30.76,123.8
"2010-07-27 00:13:00",17607,3.738,161.2,7.256,0.201,24.86,111.948,29.9,30.73,12.69,0,111.6,13.02,30.76,123.2
"2010-07-27 00:13:30",17608,4.354,156,14.47,1.1,24.86,111.9443,29.89,30.74,12.76,0,111.6,13.01,30.75,118.0
"2010-07-27 00:14:00",17609,5.806,140.8,6.861,0.556,24.9,111.948,29.9,30.73,12.75,0,111.6,13.01,30.76,102.8
"2010-07-27 00:14:30",17610,4.404,134,4.547,0.228,24.91,111.9511,29.91,30.74,12.73,0,111.6,13.01,30.77,96.0
"2010-07-27 00:15:00",17611,4.159,137.6,5.064,0.354,24.89,111.9379,29.88,30.73,12.66,0,111.6,13.01,30.73,99.6
"2010-07-27 00:15:30",17612,4.342,128.4,5.642,0.42,24.91,111.927,29.85,30.72,12.72,0,111.6,13.02,30.71,90.4
"2010-07-27 00:16:00",17613,5.129,133.3,4.496,0.42,24.97,111.9271,29.85,30.72,12.79,0,111.6,13.02,30.71,95.3
"2010-07-27 00:16:30",17614,4.366,131.4,4.073,0.563,24.94,111.9256,29.85,30.71,12.8,0,111.6,13.02,30.70,93.4
"2010-07-27 00:17:00",17615,3.559,138.2,8.65,0.522,24.95,111.9242,29.84,30.72,12.85,0,111.6,13.02,30.70,100.2
"2010-07-27 00:17:30",17616,2.707,153.6,6.225,0.284,24.95,111.9212,29.83,30.72,12.86,0,111.6,13.02,30.69,115.6
"2010-07-27 00:18:00",17617,3.493,152.9,10.74,0.325,24.93,111.9205,29.83,30.7,12.89,0,111.6,13.02,30.69,114.9
"2010-07-27 00:18:30",17618,4.215,136.1,7.125,1.042,24.93,111.9218,29.84,30.7,12.95,0,111.6,13.02,30.69,98.1
"2010-07-27 00:19:00",17619,4.593,133.7,4.242,0.555,24.92,111.9215,29.84,30.69,12.85,0,111.6,13.02,30.69,95.7
"2010-07-27 00:19:30",17620,3.638,138.8,3.827,0.339,24.91,111.9224,29.84,30.69,12.83,0,111.6,13.02,30.69,100.8
"2010-07-27 00:20:00",17621,3.467,140.3,3.147,0.206,24.91,111.9231,29.84,30.7,12.78,0,111.6,13.02,30.70,102.3
"2010-07-27 00:20:30",17622,3.056,135.3,2.661,0.084,24.85,111.9234,29.84,30.68,12.77,0,111.6,13.02,30.70,97.3
"2010-07-27 00:21:00",17623,3.316,134.7,2.304,0.198,24.85,111.9224,29.84,30.67,12.76,0,111.6,13.02,30.69,96.7
"2010-07-27 00:21:30",17624,2.941,128.3,1.805,0.118,24.86,111.9224,29.84,30.7,12.73,0,111.6,13.02,30.69,90.3
"2010-07-27 00:22:00",17625,3.101,129.6,2.337,0.124,24.88,111.9234,29.84,30.7,12.68,0,111.6,13.02,30.70,91.6
"2010-07-27 00:22:30",17626,3.565,145.9,5.718,0.266,24.88,111.9234,29.84,30.7,12.72,0,111.6,13.02,30.70,107.9
"2010-07-27 00:23:00",17627,3.681,148.5,3.841,0.391,24.9,111.9248,29.84,30.7,12.72,0,111.6,13.02,30.70,110.5
"2010-07-27 00:23:30",17628,3.491,142.5,8.64,0.314,24.86,111.9276,29.85,30.69,12.69,0,111.6,13.02,30.71,104.5
"2010-07-27 00:24:00",17629,3.914,137.4,1.82,0.132,24.85,111.9264,29.85,30.71,12.65,0,111.6,13.02,30.70,99.4
"2010-07-27 00:24:30",17630,3.458,137.4,2.221,0.157,24.87,111.929,29.85,30.69,12.64,0,111.6,13.02,30.71,99.4
"2010-07-27 00:25:00",17631,2.956,139.7,1.131,0.224,24.87,111.9309,29.86,30.72,12.62,0,111.6,13.02,30.72,101.7
"2010-07-27 00:25:30",17632,2.282,141.1,2.412,0.155,24.83,111.9318,29.86,30.72,12.63,0,111.6,13.02,30.72,103.1
"2010-07-27 00:26:00",17633,2.136,140.1,3.349,0.231,24.84,111.9334,29.87,30.72,12.63,0,111.6,13.02,30.72,102.1
"2010-07-27 00:26:30",17634,2.577,148,7.057,0.308,24.87,111.9393,29.88,30.73,12.65,0,111.6,13.02,30.74,110.0
"2010-07-27 00:27:00",17635,2.538,140.5,5.806,0.205,24.83,111.9432,29.89,30.74,12.62,0,111.6,13.02,30.75,102.5
"2010-07-27 00:27:30",17636,2.951,150.1,5.018,0.289,24.87,111.9393,29.88,30.73,12.63,0,111.6,13.02,30.74,112.1
"2010-07-27 00:28:00",17637,2.662,148.7,3.795,0.196,24.86,111.9427,29.89,30.73,12.6,0,111.6,13.02,30.75,110.7
"2010-07-27 00:28:30",17638,3.11,149.9,3.369,0.407,24.87,111.9508,29.91,30.74,12.65,0,111.6,13.02,30.77,111.9
"2010-07-27 00:29:00",17639,3.148,140.3,3.812,0.158,24.84,111.9472,29.9,30.75,12.72,0,111.6,13.02,30.76,102.3
"2010-07-27 00:29:30",17640,3.095,141.1,3.94,0.289,24.85,111.9396,29.88,30.74,12.81,0,111.6,13.02,30.74,103.1
"2010-07-27 00:30:00",17641,2.956,135.3,5.921,0.181,24.89,111.9332,29.87,30.74,12.85,0,111.6,13.02,30.72,97.3
"2010-07-27 00:30:30",17642,3.303,128.4,3.143,0.156,24.86,111.9318,29.86,30.75,12.77,0,111.6,13.02,30.72,90.4
"2010-07-27 00:31:00",17643,3.279,135.2,3.141,0.196,24.87,111.9295,29.86,30.72,12.74,0,111.6,13.02,30.71,97.2
"2010-07-27 00:31:30",17644,2.784,137.3,5.698,0.177,24.86,111.9287,29.85,30.73,12.78,0,111.6,13.02,30.71,99.3
"2010-07-27 00:32:00",17645,3.632,138.7,2.989,0.515,24.88,111.9306,29.86,30.73,12.87,0,111.6,13.02,30.71,100.7
"2010-07-27 00:32:30",17646,2.975,133.9,5.804,0.32,24.9,111.9306,29.86,30.73,12.96,0,111.6,13.02,30.71,95.9
"2010-07-27 00:33:00",17647,2.924,129.6,4.162,0.171,24.91,111.9301,29.86,30.72,13.02,0,111.6,13.02,30.71,91.6
"2010-07-27 00:33:30",17648,3.42,135.6,4.004,0.513,24.89,111.9239,29.84,30.71,13.09,0,111.6,13.02,30.70,97.6
"2010-07-27 00:34:00",17649,4.222,132.5,1.71,0.199,24.84,111.9239,29.84,30.72,13.06,0,111.6,13.02,30.70,94.5
"2010-07-27 00:34:30",17650,4.241,136.1,2.483,0.356,24.88,111.9211,29.83,30.71,13.05,0,111.6,13.02,30.69,98.1
"2010-07-27 00:35:00",17651,4.738,135.8,2.677,0.19,24.94,111.9186,29.83,30.69,13.03,0,111.6,13.02,30.68,97.8
"2010-07-27 00:35:30",17652,4.624,143.3,2.53,0.163,24.99,111.9152,29.82,30.69,12.97,0,111.6,13.02,30.68,105.3
"2010-07-27 00:36:00",17653,3.977,146.4,2.598,0.336,24.95,111.9178,29.83,30.69,13.02,0,111.6,13.02,30.68,108.4
"2010-07-27 00:36:30",17654,3.622,145.8,2.99,0.188,24.93,111.9172,29.82,30.68,12.89,0,111.6,13.02,30.68,107.8
"2010-07-27 00:37:00",17655,3.608,135.3,4.987,0.194,24.89,111.9189,29.83,30.68,12.96,0,111.6,13.02,30.68,97.3
"2010-07-27 00:37:30",17656,3.451,131.6,5.302,0.227,24.9,111.9127,29.81,30.68,12.95,0,111.6,13.02,30.67,93.6
"2010-07-27 00:38:00",17657,3.406,140.4,3.762,0.148,24.9,111.9071,29.8,30.67,12.99,0,111.6,13.02,30.65,102.4
"2010-07-27 00:38:30",17658,3.691,138.6,2.728,0.143,24.91,111.9015,29.78,30.67,12.99,0,111.6,13.02,30.64,100.6
"2010-07-27 00:39:00",17659,3.325,135.2,4.45,0.146,24.89,111.901,29.78,30.67,13,0,111.6,13.02,30.64,97.2
"2010-07-27 00:39:30",17660,3.458,131.4,9.97,0.3,24.88,111.8965,29.77,30.66,12.96,0,111.6,13.02,30.63,93.4
"2010-07-27 00:40:00",17661,4.233,123.8,4.741,0.292,24.89,111.8971,29.77,30.67,12.91,0,111.6,13.02,30.63,85.8
"2010-07-27 00:40:30",17662,4.173,124,2.097,0.246,24.89,111.8969,29.77,30.65,12.87,0,111.6,13.02,30.63,86.0
"2010-07-27 00:41:00",17663,4.052,122.4,2.323,0.122,24.89,111.8991,29.78,30.65,12.85,0,111.6,13.02,30.63,84.4
"2010-07-27 00:41:30",17664,3.883,126.4,3.236,0.101,24.89,111.8992,29.78,30.67,12.81,0,111.6,13.02,30.63,88.4
"2010-07-27 00:42:00",17665,4.057,131.7,2.4,0.161,24.92,111.8995,29.78,30.66,12.83,0,111.6,13.02,30.63,93.7
"2010-07-27 00:42:30",17666,4.412,126.2,4.317,0.262,24.92,111.9017,29.78,30.66,12.84,0,111.6,13.02,30.64,88.2
"2010-07-27 00:43:00",17667,4.644,125.5,2.571,0.184,24.95,111.9038,29.79,30.67,12.83,0,111.6,13.02,30.65,87.5
"2010-07-27 00:43:30",17668,4.658,122.9,3.663,0.266,25,111.9058,29.79,30.67,12.87,0,111.6,13.02,30.65,84.9
"2010-07-27 00:44:00",17669,4.371,125.7,3.196,0.277,25,111.9073,29.8,30.68,12.84,0,111.6,13.02,30.65,87.7
"2010-07-27 00:44:30",17670,4.114,125.1,2.557,0.251,25.05,111.9096,29.8,30.67,12.88,0,111.6,13.02,30.66,87.1
"2010-07-27 00:45:00",17671,3.836,123.9,4.262,0.51,25.02,111.9134,29.81,30.66,12.85,0,111.6,13.02,30.67,85.9
"2010-07-27 00:45:30",17672,4.186,129.4,3.827,0.172,24.98,111.9152,29.82,30.69,12.8,0,111.6,13.02,30.68,91.4
"2010-07-27 00:46:00",17673,4.667,134.2,5.241,0.503,25.02,111.9175,29.83,30.68,12.87,0,111.6,13.02,30.68,96.2
"2010-07-27 00:46:30",17674,5.038,128.6,2.689,0.307,25.05,111.9222,29.84,30.68,12.9,0,111.6,13.02,30.69,90.6
"2010-07-27 00:47:00",17675,4.798,120.1,2.912,0.333,25.06,111.9262,29.85,30.69,12.9,0,111.6,13.02,30.70,82.1
"2010-07-27 00:47:30",17676,4.466,123.6,7.036,0.463,25.05,111.9245,29.84,30.69,12.84,0,111.6,13.02,30.70,85.6
"2010-07-27 00:48:00",17677,4.678,130.1,2.057,0.202,25.08,111.9226,29.84,30.68,12.82,0,111.6,13.02,30.69,92.1
"2010-07-27 00:48:30",17678,4.095,122.2,5.28,0.182,25.07,111.9244,29.84,30.7,12.79,0,111.6,13.02,30.70,84.2
"2010-07-27 00:49:00",17679,4.344,122.9,5.572,0.172,25.02,111.9241,29.84,30.7,12.92,0,111.6,13.02,30.70,84.9
"2010-07-27 00:49:30",17680,4.443,133,2.034,0.224,25.07,111.9162,29.82,30.69,12.95,0,111.6,13.02,30.68,95.0
"2010-07-27 00:50:00",17681,4.378,133,1.88,0.263,25.07,111.912,29.81,30.69,12.95,0,111.6,13.02,30.67,95.0
"2010-07-27 00:50:30",17682,3.984,138.1,3.613,0.299,25.05,111.9081,29.8,30.69,12.78,0,111.6,13.03,30.66,100.1
"2010-07-27 00:51:00",17683,4.049,132.7,2.784,0.299,25.04,111.909,29.8,30.69,12.71,0,111.6,13.02,30.66,94.7
"2010-07-27 00:51:30",17684,4.207,134.2,1.998,0.158,25.04,111.9092,29.8,30.7,12.82,0,111.6,13.02,30.66,96.2
"2010-07-27 00:52:00",17685,3.661,132.8,1.888,0.173,25.03,111.9039,29.79,30.69,12.76,0,111.6,13.02,30.65,94.8
"2010-07-27 00:52:30",17686,3.864,140.8,5.263,0.276,25.04,111.9,29.78,30.68,12.75,0,111.6,13.03,30.64,102.8
"2010-07-27 00:53:00",17687,4.389,137.8,2.6,0.18,25.06,111.9006,29.78,30.68,12.8,0,111.6,13.03,30.64,99.8
"2010-07-27 00:53:30",17688,3.886,138,3.252,0.273,25.05,111.9011,29.78,30.68,12.8,0,111.6,13.03,30.64,100.0
"2010-07-27 00:54:00",17689,3.622,135.6,3.454,0.162,25.03,111.9008,29.78,30.69,12.95,0,111.6,13.03,30.64,97.6
"2010-07-27 00:54:30",17690,3.411,136.8,3.158,0.275,25.05,111.8994,29.78,30.68,13.13,0,111.6,13.03,30.63,98.8
"2010-07-27 00:55:00",17691,4.278,138.4,2.242,0.233,25.04,111.8992,29.78,30.69,12.96,0,111.6,13.03,30.63,100.4
"2010-07-27 00:55:30",17692,3.924,131,1.806,0.342,25.09,111.8992,29.78,30.68,12.82,0,111.6,13.03,30.63,93.0
"2010-07-27 00:56:00",17693,3.361,129.9,2.7,0.253,25.03,111.8992,29.78,30.68,12.79,0,111.6,13.03,30.63,91.9
"2010-07-27 00:56:30",17694,2.943,134.3,2.4,0.089,24.97,111.8995,29.78,30.67,12.86,0,111.5,13.03,30.63,96.3
"2010-07-27 00:57:00",17695,2.616,137.9,3.256,0.125,24.98,111.8992,29.78,30.68,12.78,0,111.5,13.03,30.63,99.9
"2010-07-27 00:57:30",17696,2.803,139.1,3.732,0.194,24.97,111.8992,29.78,30.67,12.7,0,111.5,13.03,30.63,101.1
"2010-07-27 00:58:00",17697,2.908,137.7,3.571,0.12,24.98,111.8995,29.78,30.67,12.69,0,111.5,13.03,30.63,99.7
"2010-07-27 00:58:30",17698,3.342,139.3,3.519,0.442,24.95,111.901,29.78,30.66,12.74,0,111.5,13.03,30.64,101.3
"2010-07-27 00:59:00",17699,3.542,143.7,1.721,0.165,24.97,111.9007,29.78,30.67,12.81,0,111.6,13.03,30.64,105.7
"2010-07-27 00:59:30",17700,3.931,136.7,5.216,0.208,24.94,111.9014,29.78,30.66,12.98,0,111.5,13.03,30.64,98.7
"2010-07-27 01:00:00",17701,3.896,128,2.589,0.186,24.91,111.8983,29.78,30.65,13.04,0,111.5,13.03,30.63,90.0
"2010-07-27 01:00:30",17702,3.468,131.3,8.45,0.175,24.91,111.8901,29.75,30.66,13.05,0,111.5,13.03,30.61,93.3
"2010-07-27 01:01:00",17703,3.443,136.2,3.217,0.189,24.94,111.8779,29.72,30.64,13.08,0,111.5,13.03,30.58,98.2
"2010-07-27 01:01:30",17704,3.483,133.1,2.532,0.159,24.92,111.8784,29.72,30.65,13.01,0,111.5,13.03,30.58,95.1
"2010-07-27 01:02:00",17705,3.737,129.5,3.417,0.133,24.92,111.8736,29.71,30.62,13.12,0,111.5,13.03,30.57,91.5
"2010-07-27 01:02:30",17706,3.87,124.5,3.581,0.193,24.96,111.8711,29.71,30.62,13.03,0,111.5,13.03,30.56,86.5
"2010-07-27 01:03:00",17707,3.545,131.7,4.285,0.216,24.99,111.8718,29.71,30.62,13.12,0,111.5,13.03,30.56,93.7
"2010-07-27 01:03:30",17708,3.301,134.4,6.731,0.095,25.01,111.8712,29.71,30.61,13.08,0,111.5,13.03,30.56,96.4
"2010-07-27 01:04:00",17709,3.259,134.3,2.277,0.176,24.98,111.8737,29.71,30.61,13.14,0,111.5,13.03,30.57,96.3
"2010-07-27 01:04:30",17710,3.539,132.8,2.875,0.287,24.95,111.8749,29.72,30.6,13.12,0,111.5,13.03,30.57,94.8
"2010-07-27 01:05:00",17711,3.462,133.9,3.686,0.172,24.99,111.8773,29.72,30.61,13.14,0,111.5,13.02,30.58,95.9
"2010-07-27 01:05:30",17712,3.416,131.6,3.632,0.128,24.96,111.8753,29.72,30.59,13.11,0,111.5,13.03,30.57,93.6
"2010-07-27 01:06:00",17713,3.536,127,2.662,0.134,25,111.872,29.71,30.58,12.93,0,111.5,13.03,30.56,89.0
"2010-07-27 01:06:30",17714,3.577,124.1,3.013,0.069,24.98,111.8733,29.71,30.58,12.89,0,111.5,13.02,30.57,86.1
"2010-07-27 01:07:00",17715,3.664,132.3,2.79,0.072,25.01,111.8733,29.71,30.58,13,0,111.5,13.03,30.57,94.3
"2010-07-27 01:07:30",17716,3.404,138.6,2.125,0.136,25.03,111.875,29.72,30.58,13.01,0,111.5,13.03,30.57,100.6
"2010-07-27 01:08:00",17717,3.059,139,2.089,0.157,25.04,111.8787,29.73,30.58,12.98,0,111.5,13.03,30.58,101.0
"2010-07-27 01:08:30",17718,3.059,140,1.399,0.144,25.03,111.8816,29.73,30.57,12.95,0,111.5,13.03,30.59,102.0
"2010-07-27 01:09:00",17719,2.828,142.7,1.965,0.125,25.02,111.8852,29.74,30.57,12.93,0,111.5,13.03,30.60,104.7
"2010-07-27 01:09:30",17720,3.04,141,5.471,0.107,25.01,111.8864,29.75,30.58,12.99,0,111.5,13.03,30.60,103.0
"2010-07-27 01:10:00",17721,2.922,130.3,3.681,0.285,24.96,111.8888,29.75,30.58,12.93,0,111.5,13.03,30.61,92.3
"2010-07-27 01:10:30",17722,3.764,124.4,5.171,0.383,25.02,111.8866,29.75,30.59,12.94,0,111.5,13.03,30.60,86.4
"2010-07-27 01:11:00",17723,3.527,129.9,2.536,0.123,24.99,111.8887,29.75,30.59,12.98,0,111.5,13.03,30.61,91.9
"2010-07-27 01:11:30",17724,3.601,126.5,1.995,0.08,24.99,111.8892,29.75,30.59,12.94,0,111.5,13.03,30.61,88.5
"2010-07-27 01:12:00",17725,3.396,125.7,3.163,0.159,25,111.8902,29.75,30.59,12.94,0,111.5,13.03,30.61,87.7
"2010-07-27 01:12:30",17726,3.224,120,1.968,0.093,25,111.8863,29.74,30.59,12.96,0,111.5,13.03,30.60,82.0
"2010-07-27 01:13:00",17727,3.287,125.4,4.762,0.145,24.98,111.8836,29.74,30.59,12.92,0,111.5,13.03,30.59,87.4
"2010-07-27 01:13:30",17728,3.28,124.6,3.205,0.098,24.97,111.8789,29.73,30.58,12.98,0,111.5,13.03,30.58,86.6
"2010-07-27 01:14:00",17729,3.413,126.4,3.897,0.215,24.99,111.8722,29.71,30.58,12.98,0,111.5,13.03,30.56,88.4
"2010-07-27 01:14:30",17730,3.181,124.1,1.539,0.123,25,111.8691,29.7,30.58,12.88,0,111.5,13.03,30.56,86.1
"2010-07-27 01:15:00",17731,3.234,132.4,3.055,0.184,25.03,111.8705,29.7,30.58,12.86,0,111.5,13.03,30.56,94.4
"2010-07-27 01:15:30",17732,3.217,132.9,1.536,0.122,25.06,111.8691,29.7,30.57,12.9,0,111.5,13.03,30.56,94.9
"2010-07-27 01:16:00",17733,2.967,127.3,2.111,0.127,25.03,111.8699,29.7,30.57,12.85,0,111.5,13.03,30.56,89.3
"2010-07-27 01:16:30",17734,2.964,120.4,4.359,0.131,25.02,111.8685,29.7,30.58,12.92,0,111.5,13.03,30.55,82.4
"2010-07-27 01:17:00",17735,3.328,120.8,5.237,0.206,25.01,111.8685,29.7,30.58,13.01,0,111.5,13.03,30.55,82.8
"2010-07-27 01:17:30",17736,3.694,123.1,4.945,0.17,25.02,111.8688,29.7,30.59,13,0,111.5,13.04,30.56,85.1
"2010-07-27 01:18:00",17737,3.401,121.2,4.188,0.27,25.06,111.8685,29.7,30.58,13.01,0,111.5,13.03,30.55,83.2
"2010-07-27 01:18:30",17738,3.476,122.8,2.812,0.114,25.06,111.8683,29.7,30.58,12.97,0,111.5,13.04,30.55,84.8
"2010-07-27 01:19:00",17739,3.288,123.5,4.018,0.17,25.01,111.8666,29.69,30.58,12.97,0,111.5,13.03,30.55,85.5
"2010-07-27 01:19:30",17740,2.895,118,3.118,0.144,25.05,111.8629,29.68,30.58,12.97,0,111.5,13.03,30.54,80.0
"2010-07-27 01:20:00",17741,3.309,119.8,5.194,0.103,25.01,111.8619,29.68,30.57,12.87,0,111.5,13.03,30.54,81.8
"2010-07-27 01:20:30",17742,3.588,130,3.075,0.252,25.05,111.8611,29.68,30.57,12.86,0,111.5,13.03,30.54,92.0
"2010-07-27 01:21:00",17743,3.577,128,2.861,0.083,25.07,111.8614,29.68,30.57,12.84,0,111.5,13.03,30.54,90.0
"2010-07-27 01:21:30",17744,3.391,127.4,2.641,0.212,25.03,111.8633,29.69,30.57,12.84,0,111.5,13.03,30.54,89.4
"2010-07-27 01:22:00",17745,3.481,127.3,1.597,0.078,25.09,111.862,29.68,30.56,12.86,0,111.5,13.03,30.54,89.3
"2010-07-27 01:22:30",17746,3.433,123,1.941,0.154,25.07,111.8658,29.69,30.56,12.88,0,111.5,13.03,30.55,85.0
"2010-07-27 01:23:00",17747,3.452,123.7,2.189,0.149,25.04,111.8655,29.69,30.55,12.89,0,111.5,13.03,30.55,85.7
"2010-07-27 01:23:30",17748,3.134,125.4,2.243,0.108,25.03,111.868,29.7,30.56,12.92,0,111.5,13.03,30.55,87.4
"2010-07-27 01:24:00",17749,2.991,124.5,1.158,0.056,25.04,111.8686,29.7,30.55,12.91,0,111.5,13.03,30.55,86.5
"2010-07-27 01:24:30",17750,3.123,121.4,3.065,0.162,25.06,111.8683,29.7,30.56,12.88,0,111.5,13.03,30.55,83.4
"2010-07-27 01:25:00",17751,3.106,130.5,1.501,0.103,25.1,111.8687,29.7,30.55,12.88,0,111.5,13.03,30.55,92.5
"2010-07-27 01:25:30",17752,3.056,128.1,1.676,0.251,25.1,111.8675,29.7,30.56,12.91,0,111.5,13.03,30.55,90.1
"2010-07-27 01:26:00",17753,3.339,127.2,1.236,0.191,25.11,111.8673,29.7,30.55,12.96,0,111.5,13.04,30.55,89.2
"2010-07-27 01:26:30",17754,3.24,128.2,2.27,0.118,25.12,111.8636,29.69,30.55,13,0,111.5,13.04,30.54,90.2
"2010-07-27 01:27:00",17755,3.176,127.9,2.695,0.074,25.14,111.858,29.67,30.54,13.07,0,111.5,13.04,30.53,89.9
"2010-07-27 01:27:30",17756,3.23,127.8,1.43,0.122,25.23,111.8538,29.66,30.54,12.99,0,111.5,13.04,30.52,89.8
"2010-07-27 01:28:00",17757,3.002,127.4,2.161,0.065,25.25,111.8494,29.65,30.54,12.91,0,111.5,13.04,30.51,89.4
"2010-07-27 01:28:30",17758,2.774,125.7,3.869,0.078,25.22,111.8471,29.64,30.54,13.01,0,111.5,13.04,30.50,87.7
"2010-07-27 01:29:00",17759,2.983,127.8,1.71,0.175,25.23,111.8443,29.64,30.54,12.96,0,111.5,13.04,30.49,89.8
"2010-07-27 01:29:30",17760,3.374,127.7,2.259,0.296,25.19,111.8449,29.64,30.54,12.85,0,111.5,13.04,30.49,89.7
"2010-07-27 01:30:00",17761,3.381,134.1,1.632,0.173,25.24,111.8468,29.64,30.53,12.8,0,111.5,13.04,30.50,96.1
"2010-07-27 01:30:30",17762,3.164,134.5,7.256,0.16,25.21,111.8524,29.66,30.55,12.81,0,111.5,13.04,30.51,96.5
"2010-07-27 01:31:00",17763,2.804,141.9,1.722,0.121,25.2,111.8595,29.68,30.55,12.81,0,111.5,13.04,30.53,103.9
"2010-07-27 01:31:30",17764,2.449,140,2.24,0.143,25.23,111.8693,29.7,30.55,12.81,0,111.5,13.04,30.56,102.0
"2010-07-27 01:32:00",17765,2.669,137.8,3.331,0.232,25.19,111.8714,29.71,30.56,12.78,0,111.5,13.04,30.56,99.8
"2010-07-27 01:32:30",17766,2.734,138.2,2.524,0.13,25.18,111.8708,29.7,30.56,12.8,0,111.5,13.04,30.56,100.2
"2010-07-27 01:33:00",17767,3.175,139.2,2.061,0.212,25.2,111.8749,29.72,30.57,12.78,0,111.5,13.04,30.57,101.2
"2010-07-27 01:33:30",17768,2.854,141.9,4.919,0.142,25.19,111.8767,29.72,30.58,12.77,0,111.5,13.04,30.58,103.9
"2010-07-27 01:34:00",17769,2.938,124.1,3.379,0.105,25.13,111.878,29.72,30.57,12.82,0,111.5,13.04,30.58,86.1
"2010-07-27 01:34:30",17770,3.028,122.6,2.866,0.113,25.15,111.8793,29.73,30.58,12.78,0,111.5,13.04,30.58,84.6
"2010-07-27 01:35:00",17771,3.264,128.4,1.532,0.197,25.14,111.8806,29.73,30.57,12.79,0,111.5,13.04,30.59,90.4
"2010-07-27 01:35:30",17772,3.314,127.1,1.502,0.062,25.13,111.8717,29.71,30.57,12.82,0,111.5,13.04,30.56,89.1
"2010-07-27 01:36:00",17773,3.468,129,1.387,0.057,25.14,111.8639,29.69,30.56,12.9,0,111.5,13.04,30.54,91.0
"2010-07-27 01:36:30",17774,3.381,128.5,1.069,0.05,25.15,111.8606,29.68,30.56,12.97,0,111.5,13.04,30.53,90.5
"2010-07-27 01:37:00",17775,3.518,132.9,1.804,0.104,25.18,111.8567,29.67,30.56,13.01,0,111.5,13.04,30.52,94.9
"2010-07-27 01:37:30",17776,3.509,133.6,1.946,0.053,25.21,111.8531,29.66,30.54,13.04,0,111.5,13.03,30.51,95.6
"2010-07-27 01:38:00",17777,3.367,134.3,1.77,0.14,25.19,111.8528,29.66,30.55,13.06,0,111.5,13.03,30.51,96.3
"2010-07-27 01:38:30",17778,3.361,133,2.21,0.088,25.19,111.8544,29.66,30.54,13.05,0,111.5,13.03,30.52,95.0
"2010-07-27 01:39:00",17779,3.392,131.2,2.275,0.09,25.18,111.8551,29.66,30.53,13.11,0,111.5,13.03,30.52,93.2
"2010-07-27 01:39:30",17780,3.394,135.1,2.609,0.099,25.22,111.8497,29.65,30.53,13.13,0,111.5,13.03,30.51,97.1
"2010-07-27 01:40:00",17781,3.229,129.1,2.837,0.088,25.2,111.8412,29.63,30.53,13.2,0,111.5,13.03,30.48,91.1
"2010-07-27 01:40:30",17782,3.623,131.3,3.046,0.346,25.18,111.8356,29.61,30.5,13.35,0,111.5,13.03,30.47,93.3
"2010-07-27 01:41:00",17783,3.946,130.6,1.766,0.081,25.2,111.832,29.61,30.52,13.63,0,111.5,13.03,30.46,92.6
"2010-07-27 01:41:30",17784,3.701,134.6,2.479,0.162,25.23,111.8283,29.6,30.49,13.62,0,111.5,13.04,30.45,96.6
"2010-07-27 01:42:00",17785,3.879,135,1.177,0.138,25.23,111.8291,29.6,30.49,13.57,0,111.5,13.04,30.45,97.0
"2010-07-27 01:42:30",17786,4.08,134.9,0.769,0.118,25.24,111.8223,29.58,30.47,13.6,0,111.5,13.04,30.44,96.9
"2010-07-27 01:43:00",17787,4.451,138.1,2.231,0.104,25.29,111.8103,29.55,30.47,13.51,0,111.5,13.05,30.40,100.1
"2010-07-27 01:43:30",17788,4.243,140.4,0.924,0.093,25.27,111.8064,29.54,30.46,13.48,0,111.5,13.05,30.39,102.4
"2010-07-27 01:44:00",17789,4.454,137.6,0.313,0.115,25.29,111.8053,29.54,30.45,13.49,0,111.5,13.05,30.39,99.6
"2010-07-27 01:44:30",17790,4.447,137.8,0.776,0.091,25.32,111.8053,29.54,30.43,13.5,0,111.5,13.04,30.39,99.8
"2010-07-27 01:45:00",17791,4.478,137.6,2.056,0.094,25.33,111.8044,29.53,30.44,13.48,0,111.5,13.05,30.39,99.6
"2010-07-27 01:45:30",17792,4.277,133,1.064,0.12,25.31,111.8033,29.53,30.44,13.51,0,111.5,13.05,30.39,95.0
"2010-07-27 01:46:00",17793,4.102,132.5,1.056,0.063,25.31,111.8003,29.52,30.42,13.56,0,111.5,13.05,30.38,94.5
"2010-07-27 01:46:30",17794,4.241,132.1,1.022,0.063,25.28,111.799,29.52,30.43,13.6,0,111.5,13.05,30.38,94.1
"2010-07-27 01:47:00",17795,4.412,131.2,2.263,0.097,25.25,111.8003,29.52,30.41,13.75,0,111.5,13.05,30.38,93.2
"2010-07-27 01:47:30",17796,4.718,129,1.124,0.137,25.17,111.7966,29.51,30.4,13.92,0,111.5,13.05,30.37,91.0
"2010-07-27 01:48:00",17797,5.046,124.6,0.964,0.141,25.21,111.7829,29.48,30.4,13.91,0,111.5,13.05,30.33,86.6
"2010-07-27 01:48:30",17798,4.747,128,1.147,0.179,25.2,111.7725,29.45,30.39,13.86,0,111.5,13.05,30.31,90.0
"2010-07-27 01:49:00",17799,4.771,127.3,1.112,0.107,25.19,111.7726,29.45,30.37,13.88,0,111.5,13.05,30.31,89.3
"2010-07-27 01:49:30",17800,4.845,128.9,1.126,0.092,25.21,111.7721,29.45,30.35,13.88,0,111.5,13.05,30.31,90.9